Zurück zum Katalog

STARLINK-33821

AktivKommunikationVLEO
NORAD 63859·PAYLOAD·🇺🇸 United States

Gestartet May 7, 2025 von Cape Canaveral Space Force Station

Loading…

Nächste Überflüge (nächste 24 Stunden)

TLE

AktuellSource: CelesTrak SupGP

Epoche: Sep 15, 2026, 02:36 UTC

1 63859C 25093Z   26258.10881944  .00009053  00000+0  32786-3 0  2581
2 63859  43.0014  88.2920 0001699 269.5196 294.1718 15.27578773    12

Verfolge STARLINK-33821 in Echtzeit mit AllMySat

Download on the App Store